"2009-01-20 00:00:30",556196,11.96,38.9,6.985,1.688,15.24,105.1442,12.44,13.66,17.02,0,110.3,13.31,13.24,0.9
"2009-01-20 00:01:00",556197,11.53,37.53,6.333,1.196,14.35,105.1369,12.42,13.63,17,0,110.3,13.31,13.22,359.5
"2009-01-20 00:01:30",556198,13.97,43.37,6.064,1.175,15.22,105.1282,12.4,13.55,16.81,0,110.3,13.31,13.20,5.4
"2009-01-20 00:02:00",556199,13.9,44.07,6.043,1.49,15.59,105.1198,12.38,13.6,16.8,0,110.3,13.31,13.17,6.1
"2009-01-20 00:02:30",556200,14.32,39.78,6.222,1.194,13.63,105.121,12.38,13.43,16.63,0,110.3,13.31,13.18,1.8
"2009-01-20 00:03:00",556201,12.12,36.13,4.985,1.088,13.13,105.1234,12.39,13.51,16.67,0,110.3,13.31,13.18,358.1
"2009-01-20 00:03:30",556202,11.44,39.81,6.418,1.036,15.64,105.1164,12.37,13.54,16.92,0,110.3,13.31,13.17,1.8
"2009-01-20 00:04:00",556203,11.47,37.75,6.385,1.681,14.45,105.1037,12.34,13.51,16.93,0,110.3,13.31,13.13,359.8
"2009-01-20 00:04:30",556204,11.65,36.78,6.129,1.446,13.47,105.0924,12.31,13.4,16.92,0,110.3,13.31,13.10,358.8
"2009-01-20 00:05:00",556205,12.92,40.63,6.667,1.458,15.12,105.0922,12.31,13.53,16.92,0,110.3,13.31,13.10,2.6
"2009-01-20 00:05:30",556206,12.79,42.58,5.645,1.122,15.49,105.0963,12.32,13.52,16.82,0,110.3,13.31,13.11,4.6
"2009-01-20 00:06:00",556207,10.9,33.71,5.56,1.184,12.98,105.0975,12.32,13.33,16.75,0,110.3,13.31,13.12,355.7
"2009-01-20 00:06:30",556208,10.5,35.59,6.309,1.134,14.31,105.0964,12.32,13.47,17.14,0,110.3,13.32,13.11,357.6
"2009-01-20 00:07:00",556209,10.79,38.35,6.509,1.425,15.06,105.0925,12.31,13.53,17.26,0,110.3,13.31,13.10,0.3
"2009-01-20 00:07:30",556210,10.47,34.88,7.024,1.669,13.32,105.0858,12.29,13.26,16.88,0,110.3,13.31,13.09,356.9
"2009-01-20 00:08:00",556211,11.09,32.36,2.733,0.956,12.22,105.082,12.28,13.32,16.87,0,110.3,13.31,13.08,354.4
"2009-01-20 00:08:30",556212,12.45,41.8,5.463,1.295,15.9,105.0791,12.27,13.47,16.94,0,110.3,13.31,13.07,3.8
"2009-01-20 00:09:00",556213,12.33,40.43,6.659,1.545,15.72,105.0721,12.26,13.47,16.9,0,110.3,13.31,13.05,2.4
"2009-01-20 00:09:30",556214,11.33,34.13,4.506,1.062,12.65,105.0741,12.26,13.4,16.83,0,110.3,13.31,13.06,356.1
"2009-01-20 00:10:00",556215,13.22,41.94,5.662,0.936,15.34,105.0741,12.26,13.44,16.84,0,110.3,13.31,13.06,3.9
"2009-01-20 00:10:30",556216,12.8,39.78,6.88,1.506,14.59,105.0755,12.27,13.31,16.75,0,110.3,13.31,13.06,1.8
"2009-01-20 00:11:00",556217,11.11,31.96,1.2,0.631,11.88,105.0761,12.27,13.2,16.68,0,110.3,13.35,13.06,354.0
"2009-01-20 00:11:30",556218,11.88,38.3,6.243,1.276,14.59,105.075,12.26,13.42,16.95,0,110.3,13.31,13.06,0.3
"2009-01-20 00:12:00",556219,13.41,41.84,6.498,1.377,15.52,105.0747,12.26,13.43,17.01,0,110.3,13.32,13.06,3.8
"2009-01-20 00:12:30",556220,13.47,41.57,6.206,1.163,15.48,105.0711,12.25,13.42,17.02,0,110.3,13.32,13.05,3.6
"2009-01-20 00:13:00",556221,13.48,41.36,6.704,1.568,14.77,105.0674,12.24,13.31,16.92,0,110.3,13.32,13.04,3.4
"2009-01-20 00:13:30",556222,15.27,42.73,6.386,1.487,14.75,105.0615,12.23,13.42,17.03,0,110.3,13.32,13.02,4.7
"2009-01-20 00:14:00",556223,14.08,39.61,7.483,2.186,13.65,105.0516,12.2,13.18,16.77,0,110.3,13.32,13.00,1.6
"2009-01-20 00:14:30",556224,13.59,39.51,6.671,1.149,14.17,105.0446,12.19,13.31,16.9,0,110.3,13.32,12.98,1.5
"2009-01-20 00:15:00",556225,14.22,42.36,6.741,1.484,15.1,105.0423,12.18,13.42,17.02,0,110.3,13.32,12.98,4.4
"2009-01-20 00:15:30",556226,14.47,44.04,5.571,1.297,15.91,105.0423,12.18,13.35,16.96,0,110.3,13.32,12.98,6.0
"2009-01-20 00:16:00",556227,13.72,40.58,6.383,1.379,14.43,105.0423,12.18,13.38,16.88,0,110.3,13.32,12.98,2.6
"2009-01-20 00:16:30",556228,13.38,41.23,6.255,1.598,15.36,105.0423,12.18,13.39,17,0,110.3,13.33,12.98,3.2
"2009-01-20 00:17:00",556229,14.06,36.36,5.366,1.293,12.17,105.0423,12.18,13.17,16.76,0,110.3,13.33,12.98,358.4
"2009-01-20 00:17:30",556230,13.74,40.3,6.261,1.139,14.49,105.0423,12.18,13.32,16.82,0,110.3,13.33,12.98,2.3
"2009-01-20 00:18:00",556231,14.72,42.85,5.807,1.01,15.32,105.0423,12.18,13.31,16.77,0,110.3,13.33,12.98,4.8
"2009-01-20 00:18:30",556232,14.12,41.12,6.837,1.477,15.66,105.042,12.18,13.37,16.88,0,110.3,13.33,12.97,3.1
"2009-01-20 00:19:00",556233,13.94,41.46,6.177,1.422,15.31,105.0378,12.17,13.27,16.84,0,110.3,13.33,12.96,3.5
"2009-01-20 00:19:30",556234,12.78,40.22,6.425,1.264,14.81,105.0347,12.16,13.34,17.02,0,110.2,13.33,12.96,2.2
"2009-01-20 00:20:00",556235,12.15,37.74,6.233,1.121,13.98,105.0341,12.16,13.21,16.96,0,110.3,13.33,12.95,359.7
"2009-01-20 00:20:30",556236,13.08,38.56,6.237,1.157,13.96,105.0313,12.15,13.28,17.15,0,110.2,13.33,12.95,0.6
"2009-01-20 00:21:00",556237,14.14,41.09,6.504,1.24,14.37,105.0279,12.14,13.22,17.12,0,110.2,13.33,12.94,3.1
"2009-01-20 00:21:30",556238,14.54,39.42,6.561,1.696,14.07,105.0265,12.14,13.23,17.19,0,110.2,13.33,12.93,1.4
"2009-01-20 00:22:00",556239,15.1,43.83,6.754,1.887,15.33,105.0228,12.13,13.32,17.15,0,110.2,13.33,12.93,5.8
"2009-01-20 00:22:30",556240,13.98,43.21,6.204,1.531,15.5,105.0138,12.11,13.3,17.1,0,110.2,13.33,12.90,5.2
"2009-01-20 00:23:00",556241,13.06,42.74,5.541,1.434,15.3,105.0085,12.09,13.28,17.08,0,110.2,13.33,12.89,4.7
"2009-01-20 00:23:30",556242,13.2,34.63,1.781,1.194,11.79,105.0085,12.09,13.17,16.92,0,110.2,13.32,12.89,356.6
"2009-01-20 00:24:00",556243,14.24,42.03,6.439,1.334,14.81,105.0085,12.09,13.22,16.93,0,110.2,13.32,12.89,4.0
"2009-01-20 00:24:30",556244,13.51,39.25,6.301,1.091,14.22,105.0085,12.09,13.22,17.03,0,110.2,13.32,12.89,1.2
"2009-01-20 00:25:00",556245,12.62,39.54,6.493,1.613,15.43,105.0085,12.09,13.35,17.24,0,110.2,13.32,12.89,1.5
"2009-01-20 00:25:30",556246,12.76,40.39,6.429,1.558,15.65,105.0073,12.09,13.24,17.21,0,110.2,13.32,12.89,2.4
"2009-01-20 00:26:00",556247,11.02,34.71,6.548,1.238,13.64,105.0025,12.08,13.3,17.32,0,110.2,13.32,12.87,356.7
"2009-01-20 00:26:30",556248,11.08,34.77,7.4,1.679,13.36,105.0012,12.08,13.19,17.21,0,110.2,13.32,12.87,356.8
"2009-01-20 00:27:00",556249,13.13,39.82,7.603,2.055,14.25,104.9976,12.07,13.13,16.98,0,110.2,13.32,12.86,1.8
"2009-01-20 00:27:30",556250,13.45,39.94,7.113,1.588,14.28,104.9948,12.06,13.15,16.99,0,110.2,13.32,12.85,1.9
"2009-01-20 00:28:00",556251,11.61,37.31,6.666,1.303,14.13,104.9898,12.05,13.21,17.23,0,110.2,13.33,12.84,359.3
"2009-01-20 00:28:30",556252,12.43,40.8,6.509,1.487,15.54,104.9825,12.03,13.22,17.31,0,110.2,13.33,12.82,2.8
"2009-01-20 00:29:00",556253,11.56,35.48,5.614,1.078,13.19,104.9799,12.02,13.17,17.19,0,110.2,13.33,12.82,357.5
"2009-01-20 00:29:30",556254,12.6,36.37,6.074,1.377,12.79,104.9811,12.02,13.22,17.24,0,110.2,13.33,12.82,358.4
"2009-01-20 00:30:00",556255,12.24,38.63,6.388,1.084,14.13,104.9832,12.03,13.21,17.36,0,110.3,13.33,12.82,0.6
"2009-01-20 00:30:30",556256,11.68,37.22,6.823,1.42,14.05,104.9841,12.03,13.21,17.49,0,110.2,13.33,12.83,359.2
"2009-01-20 00:31:00",556257,12.47,39.03,6.858,1.543,14.86,104.9805,12.02,13.22,17.58,0,110.2,13.33,12.82,1.0
"2009-01-20 00:31:30",556258,12.93,39.32,6.347,1.322,14.78,104.9686,11.99,13.11,17.49,0,110.2,13.33,12.79,1.3
"2009-01-20 00:32:00",556259,12.5,37.2,6.596,1.194,13.99,104.9597,11.97,13.14,17.53,0,110.2,13.33,12.76,359.2
"2009-01-20 00:32:30",556260,12.59,38.08,6.524,1.479,14.66,104.9547,11.96,13.12,17.5,0,110.2,13.33,12.75,0.1
"2009-01-20 00:33:00",556261,10.89,29.36,5.164,1.059,12.52,104.9538,11.95,13.06,17.51,0,110.2,13.33,12.75,351.4
"2009-01-20 00:33:30",556262,12.32,36.78,6.162,1.29,15.41,104.9565,11.96,13.19,17.67,0,110.2,13.33,12.75,358.8
"2009-01-20 00:34:00",556263,11.74,34.59,6.321,1.335,14.7,104.96,11.97,13.14,17.64,0,110.2,13.33,12.76,356.6
"2009-01-20 00:34:30",556264,11.32,29.69,6.698,1.079,13.73,104.96,11.97,13.12,17.64,0,110.2,13.33,12.76,351.7
"2009-01-20 00:35:00",556265,12.1,32.05,6.408,1.368,14.48,104.9618,11.97,12.98,17.61,0,110.2,13.33,12.77,354.0
"2009-01-20 00:35:30",556266,11.13,27.76,6.149,1.437,12.96,104.963,11.98,12.97,17.58,0,110.2,13.33,12.77,349.8
"2009-01-20 00:36:00",556267,11.03,34.78,7.549,1.436,14.1,104.9627,11.98,13.09,17.61,0,110.2,13.33,12.77,356.8
"2009-01-20 00:36:30",556268,11.8,36.63,5.306,1.624,15.54,104.9671,11.99,13.13,17.67,0,110.2,13.33,12.78,358.6
"2009-01-20 00:37:00",556269,12.06,38.26,6.205,1.332,15.33,104.9671,11.99,13.11,17.62,0,110.2,13.33,12.78,0.3
"2009-01-20 00:37:30",556270,11.84,38.17,4.686,1.244,15.46,104.9707,12,13.1,17.6,0,110.2,13.33,12.79,0.2
"2009-01-20 00:38:00",556271,10.16,28.17,4.549,1.151,12.29,104.9719,12,13.04,17.55,0,110.2,13.34,12.79,350.2
"2009-01-20 00:38:30",556272,11.01,33.84,5.907,1.009,13.03,104.9716,12,13.03,17.64,0,110.2,13.34,12.79,355.8
"2009-01-20 00:39:00",556273,11.86,35.2,7.03,1.809,13.37,104.9711,12,12.92,17.55,0,110.2,13.33,12.79,357.2
"2009-01-20 00:39:30",556274,11.98,37.59,6.121,1.297,15.18,104.9629,11.98,13.18,17.8,0,110.2,13.33,12.77,359.6
"2009-01-20 00:40:00",556275,11.32,38.62,6.143,1.288,15.29,104.9528,11.95,13.14,17.72,0,110.2,13.33,12.75,0.6
"2009-01-20 00:40:30",556276,11.47,34.9,6.74,1.041,14.19,104.9441,11.93,13.12,17.67,0,110.2,13.33,12.72,356.9
"2009-01-20 00:41:00",556277,10.94,32.2,6.315,1.386,13.3,104.9418,11.92,12.99,17.68,0,110.2,13.33,12.72,354.2
"2009-01-20 00:41:30",556278,11.04,28.33,4.01,0.899,12.28,104.9422,11.92,12.99,17.86,0,110.2,13.33,12.72,350.3
"2009-01-20 00:42:00",556279,10.48,26.82,1.352,0.674,11.8,104.9425,11.93,12.95,17.8,0,110.2,13.33,12.72,348.8
"2009-01-20 00:42:30",556280,11.39,34.96,6.703,1.412,14.94,104.9422,11.92,13.01,17.81,0,110.2,13.33,12.72,357.0
"2009-01-20 00:43:00",556281,11.37,37.41,6.338,1.142,15.37,104.9422,11.92,13.18,17.97,0,110.2,13.33,12.72,359.4
"2009-01-20 00:43:30",556282,11.86,38.29,4.694,1.107,15.72,104.9425,11.93,13.07,17.93,0,110.2,13.33,12.72,0.3
"2009-01-20 00:44:00",556283,11.51,34.34,6.894,1.185,13.74,104.9413,11.92,12.93,17.9,0,110.2,13.33,12.72,356.3
"2009-01-20 00:44:30",556284,10.85,32.08,6.842,1.384,13.41,104.9337,11.9,12.98,18.04,0,110.2,13.33,12.70,354.1
"2009-01-20 00:45:00",556285,10.63,27.8,4.329,0.611,12.25,104.9278,11.89,12.93,18.03,0,110.2,13.34,12.68,349.8
"2009-01-20 00:45:30",556286,11.03,31.75,6.187,1.364,13.53,104.9173,11.86,12.8,17.98,0,110.2,13.34,12.65,353.8
"2009-01-20 00:46:00",556287,11.98,35.8,6.176,1.283,15.54,104.9103,11.84,13.06,18.29,0,110.2,13.34,12.64,357.8
"2009-01-20 00:46:30",556288,12.53,36.17,5.487,1.545,15.62,104.9086,11.84,13.11,18.35,0,110.2,13.34,12.63,358.2
"2009-01-20 00:47:00",556289,13.15,35.84,5.436,1.296,15.28,104.9086,11.84,13.03,18.29,0,110.2,13.34,12.63,357.8
"2009-01-20 00:47:30",556290,11.14,29.91,6.293,1.114,12.66,104.9086,11.84,12.88,18.12,0,110.2,13.34,12.63,351.9
"2009-01-20 00:48:00",556291,11.64,26.48,3.75,0.754,12.1,104.9086,11.84,12.86,18.15,0,110.2,13.34,12.63,348.5
"2009-01-20 00:48:30",556292,12.31,32.02,6.897,1.685,14,104.9086,11.84,12.85,18.19,0,110.2,13.34,12.63,354.0
"2009-01-20 00:49:00",556293,11.71,33.49,6.414,1.444,14.58,104.9086,11.84,12.94,18.23,0,110.2,13.34,12.63,355.5
"2009-01-20 00:49:30",556294,12.75,34.38,7.693,1.251,15.5,104.9086,11.84,12.98,18.37,0,110.2,13.34,12.63,356.4
"2009-01-20 00:50:00",556295,12.18,35.57,6.532,1.305,15.14,104.9055,11.83,13.01,18.26,0,110.3,13.34,12.62,357.6
"2009-01-20 00:50:30",556296,12.26,35.2,6.633,1.21,14.95,104.8993,11.81,12.97,18.46,0,110.2,13.34,12.61,357.2
"2009-01-20 00:51:00",556297,11.63,29.7,6.515,1.515,12.97,104.8965,11.81,12.78,18.36,0,110.2,13.34,12.60,351.7
"2009-01-20 00:51:30",556298,10.56,26.44,4.426,0.785,11.94,104.8793,11.76,12.78,18.24,0,110.2,13.34,12.56,348.4
"2009-01-20 00:52:00",556299,11.43,37.8,6.054,0.963,14.99,104.8747,11.75,12.87,18.13,0,110.2,13.34,12.54,359.8
"2009-01-20 00:52:30",556300,11.52,37.66,5.895,1.255,15.37,104.8747,11.75,12.94,18.16,0,110.2,13.34,12.54,359.7
"2009-01-20 00:53:00",556301,12.18,38.33,4.095,1.119,15.61,104.8747,11.75,12.88,18.19,0,110.2,13.34,12.54,0.3
"2009-01-20 00:53:30",556302,11.23,33.54,6.496,1.481,14.11,104.8747,11.75,12.93,18.2,0,110.2,13.34,12.54,355.5
"2009-01-20 00:54:00",556303,11.31,32.77,7.238,1.241,13.37,104.8722,11.75,12.79,18.25,0,110.2,13.34,12.54,354.8
"2009-01-20 00:54:30",556304,10.48,25.65,1.014,0.469,11.29,104.8649,11.73,12.67,18.29,0,110.2,13.38,12.52,347.6
"2009-01-20 00:55:00",556305,12.06,29.76,5.675,1.911,13.73,104.8561,11.7,12.77,18.59,0,110.2,13.34,12.50,351.8
"2009-01-20 00:55:30",556306,13.59,33.35,6.956,1.621,14.9,104.8471,11.68,12.87,18.72,0,110.2,13.34,12.47,355.4
"2009-01-20 00:56:00",556307,14.51,35.73,4.973,1.759,16.09,104.8412,11.67,12.96,18.83,0,110.2,13.34,12.46,357.7
"2009-01-20 00:56:30",556308,13.22,34.74,6.213,1.458,14.92,104.8409,11.67,12.93,18.8,0,110.2,13.34,12.46,356.7
"2009-01-20 00:57:00",556309,13.25,33.65,6.447,1.402,14.34,104.8409,11.67,12.78,18.52,0,110.2,13.34,12.46,355.6
"2009-01-20 00:57:30",556310,11.54,25.33,0.627,0.493,11.23,104.8406,11.66,12.59,18.34,0,110.2,13.37,12.46,347.3
"2009-01-20 00:58:00",556311,10.63,26.54,0.914,0.496,11.44,104.8333,11.65,12.64,18.59,0,110.2,13.37,12.44,348.5
"2009-01-20 00:58:30",556312,13.03,34.65,6.536,1.511,15.25,104.8259,11.63,12.81,18.81,0,110.2,13.34,12.42,356.6
"2009-01-20 00:59:00",556313,12.96,34.55,6.362,1.293,15.29,104.8152,11.6,12.79,18.78,0,110.2,13.34,12.39,356.5
"2009-01-20 00:59:30",556314,13.18,34.73,6.001,1.207,15.53,104.8079,11.58,12.86,18.85,0,110.2,13.34,12.37,356.7
"2009-01-20 01:00:00",556315,13.65,33.8,6.41,1.526,14.62,104.807,11.58,12.82,18.72,0,110.2,13.33,12.37,355.8
"2009-01-20 01:00:30",556316,12.32,27.65,6.043,1.285,12.28,104.807,11.58,12.59,18.49,0,110.2,13.33,12.37,349.6
"2009-01-20 01:01:00",556317,11.12,25.78,1.22,0.629,11.25,104.807,11.58,12.52,18.46,0,110.2,13.34,12.37,347.8
"2009-01-20 01:01:30",556318,12.5,34.18,7.144,1.23,14.61,104.807,11.58,12.72,18.65,0,110.2,13.34,12.37,356.2
"2009-01-20 01:02:00",556319,13.2,33.64,5.237,1.413,15.66,104.8068,11.58,12.77,18.7,0,110.2,13.34,12.37,355.6
"2009-01-20 01:02:30",556320,12.84,34.48,6.434,1.106,15.3,104.807,11.58,12.72,18.73,0,110.2,13.34,12.37,356.5
"2009-01-20 01:03:00",556321,13.63,34.02,6.688,1.16,15.02,104.8059,11.58,12.77,18.79,0,110.2,13.34,12.37,356.0
"2009-01-20 01:03:30",556322,14.04,30.38,6.017,1.467,13.87,104.8025,11.57,12.71,18.72,0,110.2,13.34,12.36,352.4
"2009-01-20 01:04:00",556323,12.22,28.86,5.928,1.488,12.8,104.7969,11.55,12.6,18.57,0,110.1,13.34,12.35,350.9
"2009-01-20 01:04:30",556324,12.11,30.16,6.582,1.33,12.8,104.7867,11.53,12.52,18.29,0,110.2,13.34,12.32,352.2
"2009-01-20 01:05:00",556325,12.51,32.68,7.059,1.461,14.75,104.774,11.49,12.68,18.41,0,110.2,13.34,12.29,354.7
"2009-01-20 01:05:30",556326,13.23,28.75,5.862,1.401,14.84,104.7732,11.49,12.72,18.63,0,110.1,13.34,12.28,350.8
"2009-01-20 01:06:00",556327,13.47,35.17,5.06,1.231,15.39,104.7732,11.49,12.68,18.63,0,110.2,13.34,12.28,357.2
"2009-01-20 01:06:30",556328,13.32,30.93,6.76,1.481,13.86,104.7732,11.49,12.56,18.52,0,110.2,13.34,12.28,352.9
"2009-01-20 01:07:00",556329,12.84,23.34,6.213,1.358,12.71,104.7732,11.49,12.52,18.53,0,110.2,13.34,12.28,345.3
"2009-01-20 01:07:30",556330,13.48,25.24,7.041,1.835,13.31,104.7732,11.49,12.58,18.64,0,110.2,13.34,12.28,347.2
"2009-01-20 01:08:00",556331,13.73,26.72,5.622,1.415,13.34,104.7732,11.49,12.55,18.51,0,110.2,13.34,12.28,348.7
"2009-01-20 01:08:30",556332,14.52,31.16,5.709,1.248,15.32,104.7732,11.49,12.65,18.69,0,110.2,13.34,12.28,353.2
"2009-01-20 01:09:00",556333,14.3,30.74,6.65,1.525,14.57,104.7732,11.49,12.61,18.7,0,110.2,13.34,12.28,352.7
"2009-01-20 01:09:30",556334,12.91,27.58,6.388,1.291,13.36,104.7732,11.49,12.64,18.71,0,110.2,13.35,12.28,349.6
"2009-01-20 01:10:00",556335,13.51,32.27,6.354,1.224,14.63,104.7732,11.49,12.63,18.83,0,110.2,13.34,12.28,354.3
"2009-01-20 01:10:30",556336,11.91,26.73,5.473,1.154,12.46,104.7735,11.49,12.6,19.04,0,110.2,13.34,12.28,348.7
"2009-01-20 01:11:00",556337,12.95,27.42,6.737,1.357,12.94,104.7752,11.5,12.54,19.04,0,110.2,13.34,12.29,349.4
"2009-01-20 01:11:30",556338,13.92,30.4,6.4,1.248,15.3,104.7825,11.52,12.64,19.13,0,110.2,13.35,12.31,352.4
"2009-01-20 01:12:00",556339,13,32.82,5.755,1.065,15.19,104.7783,11.5,12.68,18.94,0,110.2,13.35,12.30,354.8
"2009-01-20 01:12:30",556340,12.52,29.85,6.309,1.343,14.13,104.7732,11.49,12.56,18.72,0,110.2,13.35,12.28,351.9
"2009-01-20 01:13:00",556341,11.93,26.85,6.053,1.384,13.2,104.7732,11.49,12.57,18.7,0,110.2,13.34,12.28,348.9
"2009-01-20 01:13:30",556342,11.94,26.63,6.131,1.158,12.91,104.7732,11.49,12.59,18.77,0,110.2,13.34,12.28,348.6
"2009-01-20 01:14:00",556343,13.36,27.79,6.098,1.438,13.87,104.7732,11.49,12.55,18.84,0,110.2,13.34,12.28,349.8
"2009-01-20 01:14:30",556344,13.14,27.2,6.017,1.64,13.65,104.7735,11.49,12.55,19,0,110.2,13.34,12.28,349.2
"2009-01-20 01:15:00",556345,12.96,30.15,5.936,1.546,14.69,104.7746,11.5,12.7,19.19,0,110.2,13.34,12.29,352.1
"2009-01-20 01:15:30",556346,12.71,26.72,6.43,1.423,13.89,104.776,11.5,12.58,19.15,0,110.2,13.34,12.29,348.7
"2009-01-20 01:16:00",556347,13.72,27.78,6.573,1.197,14.59,104.7828,11.52,12.64,19.1,0,110.1,13.34,12.31,349.8
"2009-01-20 01:16:30",556348,13.19,29.15,6.864,1.415,14.45,104.7918,11.54,12.69,19,0,110.2,13.34,12.33,351.1
"2009-01-20 01:17:00",556349,12.06,22.47,5.284,1.217,12.37,104.7977,11.55,12.5,18.95,0,110.2,13.34,12.35,344.5
"2009-01-20 01:17:30",556350,12.68,26.59,6.849,1.225,13.44,104.7998,11.56,12.59,19,0,110.1,13.34,12.35,348.6
"2009-01-20 01:18:00",556351,12.32,24.9,6.035,1.228,13.46,104.7947,11.55,12.61,18.95,0,110.2,13.34,12.34,346.9
"2009-01-20 01:18:30",556352,12.8,27.55,6.481,1.431,14.22,104.7916,11.54,12.56,18.88,0,110.2,13.35,12.33,349.5
"2009-01-20 01:19:00",556353,12.39,27.91,6.218,1.708,13.9,104.7786,11.51,12.66,19.03,0,110.2,13.35,12.30,349.9
"2009-01-20 01:19:30",556354,13.38,30.83,6.18,1.152,14.91,104.775,11.5,12.67,18.99,0,110.2,13.35,12.29,352.8
"2009-01-20 01:20:00",556355,12.5,29.61,6.727,1.181,14.54,104.7767,11.5,12.67,18.94,0,110.2,13.35,12.29,351.6
"2009-01-20 01:20:30",556356,11.68,29.58,6.402,1.323,13.75,104.7707,11.49,12.59,18.9,0,110.2,13.35,12.28,351.6
"2009-01-20 01:21:00",556357,10.69,25.07,4.518,1.016,11.85,104.7583,11.45,12.5,18.86,0,110.2,13.35,12.25,347.1
"2009-01-20 01:21:30",556358,11.7,31.6,6.675,1.299,14.35,104.742,11.41,12.55,18.94,0,110.2,13.35,12.20,353.6
"2009-01-20 01:22:00",556359,10.89,23.68,5.545,1.28,12.26,104.7441,11.42,12.4,18.87,0,110.2,13.35,12.21,345.7
"2009-01-20 01:22:30",556360,12.6,34.8,4.873,1.156,15.68,104.742,11.41,12.66,19.12,0,110.2,13.35,12.20,356.8
"2009-01-20 01:23:00",556361,12.5,34.65,5.655,1.18,14.92,104.7314,11.38,12.55,19.13,0,110.2,13.35,12.18,356.6
"2009-01-20 01:23:30",556362,11.83,32.4,6.484,1.355,14.41,104.7255,11.37,12.56,19.24,0,110.2,13.35,12.16,354.4
"2009-01-20 01:24:00",556363,11.26,22.36,4.641,0.871,11.96,104.7295,11.38,12.39,19.25,0,110.2,13.35,12.17,344.4
"2009-01-20 01:24:30",556364,11.96,24.03,7.052,1.534,13.17,104.7382,11.4,12.34,19.36,0,110.2,13.35,12.19,346.0
"2009-01-20 01:25:00",556365,12.48,26.53,6.854,1.578,14.02,104.7467,11.42,12.48,19.62,0,110.2,13.35,12.22,348.5
"2009-01-20 01:25:30",556366,12.41,26.68,6.008,1.503,14.99,104.7488,11.43,12.59,19.63,0,110.2,13.35,12.22,348.7
"2009-01-20 01:26:00",556367,14.54,31.62,4.783,0.996,16.16,104.75,11.43,12.65,19.59,0,110.2,13.35,12.22,353.6
"2009-01-20 01:26:30",556368,12.1,32.96,6.237,1.61,15.13,104.7494,11.43,12.64,19.39,0,110.2,13.35,12.22,355.0
"2009-01-20 01:27:00",556369,10.28,27.66,6.167,1.05,12.34,104.7485,11.43,12.48,19.11,0,110.1,13.35,12.22,349.7
"2009-01-20 01:27:30",556370,10.69,23.12,6.717,0.819,11.73,104.7479,11.43,12.32,18.88,0,110.2,13.35,12.22,345.1
"2009-01-20 01:28:00",556371,9.79,23.24,2.281,0.454,11.18,104.7465,11.42,12.35,19.09,0,110.2,13.39,12.22,345.2
"2009-01-20 01:28:30",556372,11.42,30.29,6.669,1.354,14.61,104.7403,11.41,12.54,19.21,0,110.2,13.35,12.20,352.3
"2009-01-20 01:29:00",556373,12.74,33.81,5.164,1.168,15.77,104.7387,11.4,12.6,19.43,0,110.2,13.35,12.20,355.8
"2009-01-20 01:29:30",556374,12.91,37.87,3.678,0.93,15.66,104.7359,11.4,12.62,19.37,0,110.1,13.35,12.19,359.9
"2009-01-20 01:30:00",556375,12.71,33.41,6.424,1.13,14.81,104.7376,11.4,12.54,19.3,0,110.2,13.35,12.19,355.4
"2009-01-20 01:30:30",556376,11.37,29.34,6.309,1.58,13.03,104.7356,11.4,12.38,19.06,0,110.1,13.34,12.19,351.3
"2009-01-20 01:31:00",556377,9.28,25.55,1.318,0.359,10.92,104.7265,11.37,12.28,18.83,0,110.1,13.38,12.16,347.5
"2009-01-20 01:31:30",556378,10.72,26.07,5.171,1.287,11.77,104.7167,11.35,12.33,18.82,0,110.2,13.35,12.14,348.1
"2009-01-20 01:32:00",556379,12.93,32,6.762,1.326,15.13,104.7167,11.35,12.54,19.04,0,110.1,13.34,12.14,354.0
"2009-01-20 01:32:30",556380,13.36,36.29,3.807,0.916,16.21,104.7203,11.36,12.56,19.1,0,110.1,13.35,12.15,358.3
"2009-01-20 01:33:00",556381,12.61,33.39,6.105,1.33,14.7,104.7211,11.36,12.5,18.95,0,110.2,13.34,12.15,355.4
"2009-01-20 01:33:30",556382,12.15,28.73,6.581,1.197,12.84,104.72,11.36,12.42,18.99,0,110.1,13.34,12.15,350.7
"2009-01-20 01:34:00",556383,12.26,27.23,6.614,1.045,12.74,104.7206,11.36,12.34,19.35,0,110.1,13.35,12.15,349.2
"2009-01-20 01:34:30",556384,12.1,27.38,7.528,0.729,13.11,104.7194,11.35,12.36,19.5,0,110.1,13.35,12.15,349.4
"2009-01-20 01:35:00",556385,12.1,34.08,5.966,1.489,14.89,104.7223,11.36,12.51,19.39,0,110.1,13.35,12.15,356.1
"2009-01-20 01:35:30",556386,12.99,33.24,6.209,1.436,15.19,104.7244,11.37,12.49,19.28,0,110.1,13.35,12.16,355.2
"2009-01-20 01:36:00",556387,13.15,36.83,4.553,0.73,15.84,104.7235,11.36,12.52,19.35,0,110.1,13.35,12.16,358.8
"2009-01-20 01:36:30",556388,12.61,30.53,6.474,1.318,13.86,104.7217,11.36,12.49,19.27,0,110.1,13.35,12.15,352.5
"2009-01-20 01:37:00",556389,12.48,26.28,5.589,1.435,12.41,104.7206,11.36,12.4,19.21,0,110.1,13.35,12.15,348.3
"2009-01-20 01:37:30",556390,11.98,26.49,5.063,1.098,11.82,104.7147,11.34,12.22,19.1,0,110.1,13.35,12.13,348.5
"2009-01-20 01:38:00",556391,13.52,29.03,7.125,1.494,14.24,104.7182,11.35,12.43,19.5,0,110.1,13.35,12.14,351.0
"2009-01-20 01:38:30",556392,13.49,30.33,6.381,1.647,14.31,104.7198,11.36,12.44,19.53,0,110.1,13.35,12.15,352.3
"2009-01-20 01:39:00",556393,14.44,33.81,5.113,1.683,15.79,104.7205,11.36,12.54,19.48,0,110.2,13.35,12.15,355.8
"2009-01-20 01:39:30",556394,14.22,32.74,7.107,1.245,14.89,104.7101,11.33,12.47,19.31,0,110.1,13.35,12.12,354.7
"2009-01-20 01:40:00",556395,11.95,27.75,6.744,1.526,12.48,104.6966,11.3,12.33,19.17,0,110.1,13.35,12.09,349.8
"2009-01-20 01:40:30",556396,11.77,26.37,5.293,1.238,11.52,104.6923,11.28,12.19,19.32,0,110.1,13.35,12.08,348.4
"2009-01-20 01:41:00",556397,12.4,31.97,7.715,1.575,13.63,104.6955,11.29,12.34,19.7,0,110.1,13.35,12.08,354.0
"2009-01-20 01:41:30",556398,12.02,31.5,7.475,1.679,14.05,104.6958,11.29,12.36,19.47,0,110.1,13.35,12.09,353.5
"2009-01-20 01:42:00",556399,12.78,32.97,7.132,1.498,14.72,104.697,11.3,12.44,19.52,0,110.1,13.35,12.09,355.0
"2009-01-20 01:42:30",556400,13.2,36.57,4.036,1.007,15.61,104.6982,11.3,12.47,19.56,0,110.1,13.35,12.09,358.6
"2009-01-20 01:43:00",556401,12.59,31.38,6.355,1.605,13.73,104.6888,11.28,12.37,19.27,0,110.1,13.35,12.07,353.4
"2009-01-20 01:43:30",556402,11.05,25.04,4.87,0.754,11.43,104.6821,11.26,12.28,19.06,0,110.1,13.35,12.05,347.0
"2009-01-20 01:44:00",556403,10.69,31.46,6.899,1.316,12.32,104.6717,11.23,12.21,18.93,0,110.1,13.35,12.02,353.5
"2009-01-20 01:44:30",556404,11.05,35.23,6.399,1.372,14.47,104.6667,11.22,12.34,19.03,0,110.1,13.35,12.01,357.2
"2009-01-20 01:45:00",556405,11.49,33.88,7.061,1.632,14.03,104.6661,11.22,12.31,19.01,0,110.1,13.35,12.01,355.9
"2009-01-20 01:45:30",556406,13.23,33.07,5.692,1.377,15,104.6664,11.22,12.43,19.31,0,110.1,13.35,12.01,355.1
"2009-01-20 01:46:00",556407,13.8,32.02,5.868,1.031,15.17,104.667,11.22,12.32,19.33,0,110.1,13.35,12.01,354.0
"2009-01-20 01:46:30",556408,12.51,28.09,5.717,1.534,13.6,104.6694,11.23,12.28,19.58,0,110.1,13.35,12.02,350.1
"2009-01-20 01:47:00",556409,11.62,30.75,6.713,1.532,12.84,104.6676,11.22,12.25,19.53,0,110.1,13.35,12.01,352.8
"2009-01-20 01:47:30",556410,11.11,28.63,5.019,1.418,12.3,104.6664,11.22,12.23,19.33,0,110.1,13.35,12.01,350.6
"2009-01-20 01:48:00",556411,11.94,35.16,6.987,1.724,14.2,104.6676,11.22,12.26,19.43,0,110.1,13.35,12.01,357.2
"2009-01-20 01:48:30",556412,12.12,36.2,5.802,1.083,15.16,104.66,11.2,12.3,19.41,0,110.1,13.35,11.99,358.2